QPF
0.00 0.00 0.00 0.00 0.00 0.00 0.00 0.00 0.00 0.00 0.00 0.00 0.00 0.00 0.00 0.00 0.00 0.00 0.04 0.18 0.18 0.22 0.19 0.01 0.00 0.00 0.00 0.00 0.00 0.00 0.00 0.00 0.00 0.00 0.00 0.00 0.00 0.00 0.00 0.00 0.00 0.00 0.00
0.00 0.00 0.00 0.00 0.00 0.00 0.00 0.00 0.00 0.00 0.00 0.00 0.00 0.00 0.02 0.00 0.00 0.00 0.01 0.06 0.21 0.26 0.25 0.10 0.02 0.00 0.00 0.00 0.00 0.00 0.00 0.00 0.00 0.00 0.00 0.00 0.00 0.00 0.00 0.00 0.00 0.00 0.00
0.00 0.00 0.00 0.00 0.00 0.00 0.00 0.00 0.00 0.00 0.00 0.00 0.00 0.00 0.00 0.00 0.00 0.00 0.00 0.00 0.02 0.14 0.20 0.15 0.08 0.01 0.00 0.00 0.00 0.00 0.00 0.01 0.00 0.01 0.00 0.00 0.00 0.00 0.00 0.00 0.00 0.00 0.00
0.00 0.00 0.00 0.00 0.00 0.00 0.00 0.00 0.00 0.00 0.00 0.01 0.00 0.00 0.00 0.01 0.01 0.00 0.00 0.00 0.00 0.02 0.07 0.15 0.10 0.02 0.00 0.00 0.00 0.00 0.00 0.01 0.00 0.00 0.00 0.01 0.00 0.00 0.00 0.00 0.00 0.00 0.00
0.00 0.00 0.00 0.00 0.00 0.00 0.00 0.00 0.00 0.00 0.00 0.01 0.00 0.00 0.00 0.00 0.00 0.00 0.00 0.02 0.02 0.02 0.05 0.10 0.09 0.03 0.00 0.00 0.00 0.01 0.00 0.01 0.01 0.01 0.00 0.00 0.00 0.00 0.00 0.00 0.00 0.00 0.00
0.00 0.00 0.00 0.00 0.00 0.00 0.00 0.00 0.00 0.00 0.00 0.01 0.00 0.00 0.00 0.00 0.00 0.00 0.01 0.03 0.04 0.04 0.06 0.07 0.05 0.01 0.00 0.00 0.00 0.01 0.00 0.01 0.01 0.01 0.01 0.00 0.00 0.00 0.00 0.00 0.00 0.00 0.00
0.00 0.00 0.00 0.00 0.00 0.00 0.00 0.00 0.00 0.00 0.01 0.01 0.01 0.00 0.00 0.00 0.00 0.00 0.01 0.01 0.02 0.03 0.06 0.07 0.03 0.00 0.00 0.00 0.00 0.01 0.01 0.01 0.01 0.01 0.01 0.01 0.01 0.00 0.00 0.00 0.00 0.00 0.00
0.00 0.00 0.00 0.00 0.00 0.00 0.00 0.00 0.00 0.00 0.01 0.02 0.01 0.00 0.00 0.00 0.00 0.01 0.01 0.00 0.00 0.02 0.02 0.03 0.01 0.00 0.00 0.00 0.00 0.00 0.01 0.01 0.01 0.01 0.01 0.01 0.00 0.00 0.00 0.00 0.00 0.00 0.00
0.00 0.00 0.00 0.00 0.00 0.00 0.00 0.00 0.00 0.00 0.00 0.01 0.01 0.00 0.00 0.00 0.00 0.00 0.00 0.00 0.00 0.00 0.01 0.01 0.01 0.00 0.00 0.00 0.00 0.00 0.00 0.01 0.02 0.01 0.01 0.01 0.00 0.00 0.00 0.00 0.00 0.00 0.00
0.01 0.00 0.00 0.00 0.01 0.00 0.00 0.01 0.02 0.01 0.01 0.01 0.03 0.01 0.00 0.00 0.00 0.00 0.00 0.00 0.00 0.00 0.00 0.01 0.01 0.00 0.00 0.00 0.00 0.00 0.00 0.00 0.01 0.01 0.01 0.01 0.00 0.00 0.00 0.00 0.00 0.00 0.00
0.01 0.04 0.00 0.01 0.00 0.00 0.00 0.01 0.01 0.01 0.01 0.00 0.01 0.01 0.00 0.00 0.00 0.00 0.00 0.00 0.00 0.00 0.00 0.00 0.00 0.00 0.00 0.00 0.00 0.00 0.00 0.00 0.00 0.01 0.01 0.00 0.00 0.00 0.00 0.00 0.00 0.00 0.00
0.05 0.05 0.05 0.06 0.04 0.01 0.00 0.01 0.01 0.01 0.01 0.01 0.01 0.00 0.00 0.00 0.00 0.00 0.00 0.00 0.00 0.00 0.00 0.00 0.01 0.00 0.00 0.00 0.00 0.00 0.00 0.00 0.00 0.00 0.00 0.00 0.00 0.00 0.00 0.00 0.00 0.00 0.00
0.01 0.01 0.02 0.03 0.03 0.02 0.01 0.00 0.01 0.01 0.01 0.01 0.01 0.01 0.01 0.01 0.01 0.00 0.00 0.00 0.00 0.00 0.00 0.00 0.00 0.01 0.00 0.00 0.00 0.00 0.00 0.00 0.00 0.00 0.00 0.00 0.00 0.00 0.00 0.00 0.00 0.00 0.00
0.03 0.03 0.06 0.13 0.08 0.06 0.03 0.01 0.01 0.01 0.01 0.01 0.01 0.01 0.01 0.01 0.01 0.01 0.01 0.01 0.00 0.00 0.00 0.00 0.00 0.00 0.00 0.00 0.00 0.00 0.00 0.00 0.00 0.00 0.00 0.00 0.00 0.00 0.00 0.00 0.00 0.00 0.00
0.04 0.04 0.08 0.08 0.05 0.02 0.03 0.02 0.02 0.02 0.02 0.02 0.02 0.02 0.02 0.01 0.01 0.01 0.01 0.00 0.01 0.00 0.00 0.00 0.00 0.00 0.00 0.00 0.00 0.00 0.00 0.00 0.00 0.00 0.00 0.00 0.00 0.00 0.00 0.00 0.00 0.00 0.00
0.01 0.02 0.04 0.02 0.04 0.02 0.02 0.02 0.02 0.02 0.02 0.03 0.02 0.02 0.01 0.01 0.00 0.00 0.00 0.00 0.00 0.00 0.00 0.00 0.00 0.00 0.00 0.00 0.00 0.00 0.00 0.00 0.00 0.00 0.00 0.00 0.00 0.00 0.00 0.00 0.00 0.00 0.00
0.02 0.00 0.00 0.00 0.02 0.02 0.01 0.01 0.02 0.02 0.02 0.03 0.02 0.02 0.01 0.01 0.01 0.01 0.00 0.00 0.00 0.00 0.00 0.00 0.00 0.00 0.00 0.00 0.00 0.00 0.00 0.00 0.00 0.00 0.00 0.00 0.00 0.00 0.00 0.00 0.00 0.00 0.00
0.04 0.04 0.03 0.01 0.01 0.00 0.01 0.00 0.02 0.02 0.02 0.01 0.01 0.01 0.00 0.01 0.01 0.00 0.00 0.00 0.00 0.00 0.00 0.00 0.00 0.00 0.00 0.00 0.00 0.00 0.00 0.00 0.00 0.00 0.00 0.00 0.00 0.00 0.00 0.00 0.00 0.00 0.00
0.11 0.15 0.12 0.07 0.02 0.00 0.00 0.00 0.00 0.01 0.01 0.01 0.01 0.01 0.01 0.01 0.01 0.01 0.00 0.00 0.00 0.00 0.00 0.00 0.00 0.00 0.00 0.00 0.00 0.00 0.00 0.00 0.00 0.00 0.00 0.00 0.00 0.00 0.00 0.00 0.00 0.00 0.00
0.12 0.12 0.08 0.05 0.01 0.00 0.00 0.00 0.00 0.00 0.00 0.00 0.00 0.00 0.00 0.01 0.01 0.01 0.00 0.00 0.00 0.00 0.00 0.00 0.00 0.00 0.00 0.00 0.00 0.00 0.00 0.00 0.00 0.00 0.00 0.00 0.00 0.00 0.00 0.00 0.00 0.00 0.00
0.03 0.02 0.01 0.01 0.00 0.00 0.00 0.00 0.00 0.00 0.00 0.00 0.00 0.00 0.00 0.00 0.00 0.01 0.01 0.00 0.00 0.00 0.00 0.00 0.00 0.00 0.00 0.00 0.00 0.00 0.00 0.00 0.00 0.00 0.00 0.00 0.00 0.00 0.00 0.00 0.00 0.00 0.00
0.00 0.00 0.00 0.00 0.00 0.00 0.00 0.00 0.00 0.00 0.00 0.00 0.00 0.00 0.00 0.00 0.00 0.00 0.00 0.00 0.00 0.00 0.00 0.00 0.00 0.00 0.00 0.00 0.00 0.00 0.00 0.00 0.00 0.00 0.00 0.00 0.00 0.00 0.00 0.00 0.00 0.00 0.00
0.00 0.00 0.00 0.00 0.00 0.00 0.00 0.00 0.00 0.00 0.00 0.00 0.00 0.00 0.00 0.00 0.00 0.00 0.00 0.00 0.00 0.00 0.00 0.00 0.00 0.00 0.00 0.00 0.00 0.00 0.00 0.00 0.00 0.00 0.00 0.00 0.00 0.00 0.00 0.00 0.00 0.00 0.00
0.00 0.00 0.00 0.00 0.00 0.00 0.00 0.00 0.00 0.00 0.00 0.00 0.00 0.00 0.00 0.00 0.00 0.00 0.00 0.00 0.00 0.00 0.00 0.00 0.00 0.00 0.00 0.00 0.00 0.00 0.00 0.00 0.00 0.00 0.00 0.00 0.00 0.00 0.00 0.00 0.00 0.00 0.00
0.00 0.00 0.00 0.00 0.00 0.00 0.00 0.00 0.00 0.00 0.00 0.00 0.00 0.00 0.00 0.00 0.00 0.00 0.00 0.00 0.00 0.00 0.00 0.00 0.00 0.00 0.00 0.00 0.00 0.00 0.00 0.00 0.00 0.00 0.00 0.00 0.00 0.00 0.00 0.00 0.00 0.00 0.00
0.00 0.00 0.00 0.00 0.00 0.00 0.00 0.00 0.00 0.00 0.00 0.00 0.00 0.00 0.00 0.00 0.00 0.00 0.00 0.00 0.00 0.00 0.00 0.00 0.00 0.00 0.00 0.00 0.00 0.00 0.00 0.00 0.00 0.00 0.00 0.00 0.00 0.00 0.00 0.00 0.00 0.00 0.00
MSLP
1013.53 1013.81 1013.97 1014.28 1014.54 1015.15 1015.57 1015.99 1016.25 1016.62 1016.84 1017.20 1017.49 1017.67 1017.95 1018.23 1018.61 1018.76 1019.01 1019.36 1019.51 1019.79 1020.03 1020.25 1020.84 1021.25 1021.64 1022.13 1022.38 1022.73 1023.08 1023.39 1023.79 1024.33 1024.74 1024.97 1025.27 1025.44 1025.75 1026.02 1026.24 1026.50 1026.67
1012.94 1013.32 1013.76 1013.93 1014.34 1014.77 1015.36 1015.73 1016.01 1016.37 1016.75 1017.01 1017.32 1017.53 1017.75 1018.09 1018.37 1018.56 1018.83 1019.18 1019.70 1019.91 1020.01 1019.97 1020.37 1020.93 1021.47 1021.99 1022.30 1022.57 1023.00 1023.29 1023.79 1024.29 1024.81 1025.04 1025.31 1025.48 1025.79 1026.11 1026.42 1026.71 1026.94
1012.40 1012.86 1013.26 1013.62 1013.80 1014.54 1015.12 1015.74 1016.04 1016.34 1016.74 1016.93 1017.21 1017.45 1017.68 1017.96 1018.20 1018.44 1018.82 1019.11 1019.33 1019.57 1020.07 1020.02 1019.75 1020.40 1021.08 1021.63 1022.17 1022.43 1022.80 1023.25 1023.75 1024.14 1024.70 1025.04 1025.31 1025.57 1025.88 1026.20 1026.53 1026.76 1026.98
1011.58 1012.24 1012.92 1013.29 1013.55 1014.06 1014.76 1015.43 1015.94 1016.25 1016.56 1016.79 1017.13 1017.45 1017.65 1017.82 1018.11 1018.41 1018.66 1019.01 1019.21 1019.48 1019.77 1020.12 1019.25 1020.23 1020.71 1021.32 1021.87 1022.24 1022.61 1023.13 1023.52 1024.00 1024.44 1024.93 1025.29 1025.60 1025.86 1026.13 1026.38 1026.62 1026.83
1011.05 1011.74 1012.26 1012.89 1013.35 1013.78 1014.29 1014.98 1015.62 1015.88 1016.27 1016.66 1016.97 1017.31 1017.45 1017.73 1018.00 1018.12 1018.43 1018.66 1018.86 1019.03 1019.49 1019.47 1019.80 1019.99 1020.42 1020.96 1021.42 1021.88 1022.31 1022.81 1023.23 1023.75 1024.10 1024.59 1025.08 1025.38 1025.63 1025.89 1026.20 1026.52 1026.73
1010.57 1011.20 1011.74 1012.25 1012.82 1013.44 1013.98 1014.45 1015.11 1015.71 1015.95 1016.28 1016.80 1016.99 1017.27 1017.50 1017.47 1017.81 1017.96 1018.28 1018.48 1018.77 1018.97 1019.18 1019.59 1019.76 1020.21 1020.58 1021.01 1021.47 1021.92 1022.38 1022.80 1023.26 1023.75 1024.21 1024.71 1025.12 1025.41 1025.67 1026.05 1026.39 1026.62
1010.16 1010.60 1011.26 1011.75 1012.29 1012.70 1013.23 1013.88 1014.60 1015.20 1015.82 1016.35 1016.89 1017.06 1017.13 1017.29 1017.41 1017.62 1017.66 1017.80 1018.11 1018.46 1018.60 1018.92 1019.06 1018.99 1019.82 1020.32 1020.69 1021.04 1021.35 1021.87 1022.39 1022.87 1023.32 1023.72 1024.21 1024.69 1025.06 1025.50 1025.86 1026.22 1026.45
1009.13 1009.63 1010.21 1010.81 1011.30 1012.06 1012.70 1013.29 1013.77 1014.52 1015.32 1015.80 1016.10 1016.48 1016.60 1016.74 1016.71 1016.95 1017.18 1017.44 1017.54 1017.93 1018.18 1018.49 1018.67 1019.09 1019.08 1019.66 1020.06 1020.52 1020.83 1021.33 1021.88 1022.44 1022.89 1023.32 1023.66 1024.11 1024.60 1025.03 1025.43 1025.86 1026.13
1008.03 1008.83 1009.54 1010.36 1010.63 1011.06 1011.70 1012.39 1012.96 1013.43 1014.35 1015.20 1015.32 1015.47 1015.90 1015.69 1016.27 1016.28 1016.46 1016.67 1016.87 1017.07 1017.35 1017.88 1018.12 1018.56 1018.57 1018.95 1019.47 1020.00 1020.45 1020.85 1021.30 1021.85 1022.35 1022.76 1023.18 1023.58 1024.07 1024.58 1024.93 1025.24 1025.56
1007.15 1007.89 1008.60 1009.50 1010.19 1010.43 1010.99 1011.50 1012.22 1012.71 1013.42 1014.17 1015.15 1014.96 1014.87 1015.21 1015.41 1015.85 1016.10 1016.04 1016.36 1016.64 1016.79 1017.09 1017.47 1017.75 1018.07 1018.31 1018.75 1019.18 1019.86 1020.44 1020.76 1021.20 1021.66 1022.17 1022.59 1022.98 1023.50 1024.08 1024.44 1024.71 1025.02
1006.28 1006.83 1007.54 1008.38 1009.46 1009.69 1010.00 1010.68 1011.39 1012.01 1012.41 1013.07 1013.69 1014.36 1014.78 1015.09 1015.40 1015.41 1015.42 1015.78 1016.07 1016.01 1016.20 1016.25 1016.55 1017.00 1017.35 1017.72 1018.12 1018.56 1019.07 1019.84 1020.30 1020.62 1021.05 1021.43 1021.94 1022.34 1022.89 1023.41 1023.85 1024.07 1024.30
1005.51 1006.23 1007.04 1007.40 1008.30 1008.87 1009.31 1009.77 1010.46 1011.17 1011.67 1012.32 1012.90 1013.31 1013.54 1013.90 1014.42 1014.77 1014.93 1015.04 1015.12 1015.47 1015.58 1015.78 1015.94 1015.99 1016.49 1016.85 1017.35 1017.78 1018.39 1019.04 1019.73 1020.19 1020.52 1020.93 1021.26 1021.69 1022.17 1022.64 1023.07 1023.30 1023.59
1004.61 1005.16 1005.73 1006.60 1007.28 1007.93 1008.43 1009.14 1009.77 1010.36 1010.91 1011.56 1012.01 1012.39 1012.67 1012.81 1013.14 1013.64 1014.00 1014.34 1014.61 1014.97 1015.13 1015.34 1015.49 1015.52 1015.83 1016.10 1016.43 1017.14 1017.75 1018.35 1018.90 1019.43 1019.87 1020.32 1020.72 1021.11 1021.40 1021.80 1022.17 1022.51 1022.85
1003.69 1004.45 1005.07 1006.02 1006.42 1007.46 1007.83 1008.45 1008.98 1009.35 1010.05 1010.70 1011.14 1011.60 1011.85 1012.10 1012.43 1012.68 1012.82 1013.38 1013.96 1014.11 1014.23 1014.19 1014.61 1014.81 1014.99 1015.30 1015.51 1016.41 1016.89 1017.65 1018.13 1018.67 1019.19 1019.64 1020.08 1020.44 1020.77 1021.09 1021.43 1021.70 1022.05
1003.01 1003.89 1004.47 1005.26 1006.05 1006.69 1007.40 1007.94 1008.33 1008.80 1009.27 1009.98 1010.35 1010.75 1011.05 1011.35 1011.72 1011.90 1012.09 1012.19 1012.73 1013.23 1013.19 1013.61 1013.66 1013.75 1013.87 1014.17 1014.57 1015.38 1015.96 1016.47 1017.30 1017.84 1018.44 1018.95 1019.38 1019.76 1020.09 1020.48 1020.81 1021.12 1021.47
1002.53 1003.36 1004.09 1004.69 1005.39 1006.15 1006.83 1007.42 1007.82 1008.19 1008.74 1009.22 1009.68 1010.07 1010.35 1010.59 1010.89 1011.14 1011.28 1011.42 1011.74 1012.07 1012.04 1011.90 1012.58 1012.66 1012.93 1013.39 1013.87 1014.48 1014.90 1015.45 1016.32 1017.04 1017.63 1018.16 1018.61 1019.04 1019.43 1019.82 1020.14 1020.43 1020.79
1002.08 1002.96 1003.72 1004.37 1004.86 1005.67 1006.33 1006.80 1007.42 1007.74 1008.17 1008.67 1009.13 1009.40 1009.62 1009.92 1010.06 1010.34 1010.55 1010.58 1010.97 1011.31 1011.30 1010.94 1011.68 1012.14 1012.48 1012.71 1013.25 1013.91 1014.25 1014.80 1015.11 1016.23 1016.57 1017.10 1017.67 1018.17 1018.61 1019.08 1019.50 1019.82 1020.13
1002.31 1003.04 1003.62 1004.25 1005.00 1005.58 1006.01 1006.48 1007.07 1007.50 1007.88 1008.23 1008.55 1008.83 1008.86 1009.20 1009.19 1009.32 1009.52 1009.71 1010.06 1010.29 1010.59 1010.74 1011.08 1011.51 1011.65 1012.01 1012.30 1012.85 1013.33 1013.89 1014.20 1015.21 1015.76 1016.40 1016.98 1017.48 1017.91 1018.51 1018.94 1019.30 1019.64
1002.75 1003.57 1004.12 1004.46 1004.99 1005.67 1006.19 1006.51 1007.04 1007.50 1007.78 1008.10 1008.28 1008.34 1008.30 1008.27 1008.17 1008.34 1008.37 1008.54 1008.88 1009.22 1009.49 1009.85 1010.19 1010.71 1010.99 1011.50 1012.05 1012.47 1012.89 1013.63 1014.42 1015.49 1015.65 1016.10 1016.53 1017.00 1017.44 1017.97 1018.45 1018.88 1019.34
1003.76 1004.29 1004.54 1005.02 1005.56 1006.31 1006.79 1007.12 1007.43 1007.65 1007.88 1008.07 1008.19 1008.12 1007.97 1007.78 1007.39 1007.26 1007.26 1007.33 1007.81 1008.24 1008.46 1008.73 1009.25 1009.68 1010.04 1010.60 1011.21 1011.75 1012.65 1013.64 1014.60 1015.45 1016.10 1016.36 1016.71 1017.14 1017.66 1018.14 1018.51 1019.01 1019.55
1005.51 1005.63 1005.85 1006.54 1006.95 1007.58 1008.78 1008.62 1008.21 1007.96 1007.93 1007.91 1007.94 1007.87 1007.44 1006.93 1006.67 1006.59 1006.51 1006.45 1006.43 1006.99 1007.28 1007.54 1008.17 1008.62 1009.16 1009.73 1010.14 1010.81 1011.66 1013.10 1014.45 1015.40 1016.09 1016.75 1016.97 1017.51 1018.18 1018.52 1018.95 1019.49 1019.82
1007.11 1007.34 1007.93 1008.09 1008.48 1009.81 1009.69 1009.13 1008.91 1008.50 1008.14 1008.49 1008.44 1008.03 1007.54 1006.93 1006.25 1005.74 1005.58 1005.56 1005.35 1005.44 1005.78 1006.08 1006.73 1007.29 1007.58 1008.26 1009.04 1009.82 1010.92 1012.67 1014.31 1015.06 1015.65 1017.02 1017.41 1017.76 1018.26 1018.71 1019.28 1019.56 1020.24
1008.63 1008.13 1009.51 1009.70 1010.63 1010.94 1010.44 1009.82 1009.24 1008.99 1009.40 1009.50 1009.24 1008.55 1007.68 1007.27 1006.85 1005.87 1005.24 1005.18 1005.11 1004.67 1004.32 1004.92 1005.46 1005.99 1006.34 1006.67 1007.45 1008.57 1009.77 1010.73 1012.42 1013.78 1014.90 1017.13 1017.89 1018.33 1018.75 1019.10 1019.71 1020.18 1021.13
1010.12 1011.06 1011.10 1011.56 1011.77 1011.70 1010.96 1010.39 1010.27 1010.09 1010.39 1010.48 1010.19 1009.57 1008.82 1008.10 1007.47 1006.27 1006.16 1006.22 1006.23 1006.27 1005.55 1004.96 1004.75 1005.60 1005.55 1005.57 1005.96 1006.65 1008.06 1011.28 1012.91 1013.66 1014.22 1016.54 1017.97 1018.85 1019.13 1019.54 1020.28 1020.81 1021.23
1012.35 1012.24 1012.84 1012.66 1012.45 1012.50 1012.15 1011.65 1010.76 1011.02 1011.01 1011.04 1011.08 1010.72 1010.04 1008.98 1008.08 1007.15 1007.11 1006.86 1007.43 1007.16 1006.95 1006.80 1006.46 1006.72 1006.38 1006.44 1006.28 1006.95 1009.07 1010.66 1012.96 1014.05 1014.08 1015.31 1017.26 1018.89 1019.60 1020.28 1020.90 1021.03 1021.44
1013.83 1013.97 1014.11 1014.21 1014.05 1013.59 1013.21 1012.54 1011.82 1012.19 1012.29 1011.94 1011.82 1011.82 1011.27 1010.45 1008.96 1008.63 1008.11 1008.08 1007.88 1008.25 1008.15 1008.22 1007.63 1007.54 1007.14 1007.59 1007.40 1008.07 1008.23 1009.34 1011.40 1013.45 1014.10 1014.83 1016.60 1017.44 1019.80 1020.84 1021.05 1021.46 1021.78
Thickness
5681 5679 5678 5675 5674 5671 5669 5666 5665 5662 5659 5655 5651 5648 5643 5640 5637 5637 5636 5637 5637 5634 5632 5632 5630 5629 5629 5628 5628 5627 5627 5627 5625 5622 5620 5620 5619 5618 5617 5616 5615 5613 5611
5678 5677 5674 5673 5670 5668 5664 5662 5661 5658 5654 5651 5646 5642 5637 5634 5632 5631 5629 5628 5627 5628 5627 5629 5628 5627 5625 5624 5625 5625 5624 5624 5622 5620 5617 5616 5615 5615 5613 5612 5610 5608 5607
5675 5674 5673 5669 5668 5663 5660 5656 5654 5651 5648 5645 5641 5637 5634 5631 5628 5626 5624 5623 5623 5624 5622 5624 5628 5625 5624 5623 5621 5622 5622 5621 5618 5617 5614 5613 5612 5611 5610 5609 5607 5605 5603
5676 5672 5668 5666 5664 5661 5657 5653 5650 5647 5644 5641 5636 5633 5630 5627 5623 5620 5618 5617 5617 5617 5619 5619 5624 5623 5622 5620 5619 5619 5619 5617 5616 5614 5613 5610 5609 5607 5607 5605 5603 5602 5601
5673 5669 5667 5663 5660 5657 5656 5652 5647 5645 5641 5636 5633 5630 5627 5623 5619 5617 5615 5614 5613 5613 5613 5619 5620 5620 5620 5618 5617 5616 5616 5615 5614 5612 5611 5608 5606 5605 5604 5602 5601 5599 5598
5669 5665 5663 5661 5658 5655 5652 5650 5645 5640 5638 5633 5628 5627 5624 5619 5618 5615 5613 5611 5608 5609 5609 5613 5615 5616 5616 5616 5615 5614 5613 5613 5612 5611 5609 5607 5604 5602 5601 5599 5597 5595 5593
5662 5660 5658 5656 5656 5655 5652 5648 5644 5638 5632 5627 5621 5620 5620 5618 5616 5612 5610 5610 5607 5607 5608 5610 5612 5615 5612 5612 5611 5611 5611 5610 5610 5608 5607 5606 5603 5600 5598 5596 5593 5590 5589
5661 5661 5660 5658 5656 5651 5649 5647 5644 5636 5630 5627 5621 5617 5615 5618 5617 5613 5611 5608 5607 5603 5605 5605 5608 5608 5610 5608 5608 5608 5608 5608 5607 5605 5604 5603 5601 5599 5596 5593 5590 5587 5586
5661 5659 5656 5652 5653 5652 5650 5647 5643 5638 5630 5625 5622 5618 5611 5615 5613 5613 5611 5610 5609 5608 5607 5605 5605 5605 5608 5607 5607 5604 5605 5605 5605 5603 5602 5601 5599 5597 5594 5591 5588 5586 5584
5658 5657 5653 5649 5646 5648 5646 5646 5642 5637 5632 5626 5615 5619 5619 5619 5614 5610 5610 5611 5609 5607 5607 5606 5604 5605 5606 5607 5606 5605 5601 5598 5601 5601 5601 5599 5597 5595 5592 5588 5586 5584 5581
5656 5655 5651 5648 5643 5645 5646 5643 5639 5634 5633 5628 5622 5616 5612 5612 5610 5609 5610 5606 5605 5607 5606 5606 5606 5605 5606 5606 5605 5604 5600 5596 5597 5599 5599 5598 5595 5593 5589 5586 5583 5582 5579
5651 5648 5645 5647 5643 5642 5643 5642 5638 5634 5631 5626 5623 5619 5616 5612 5609 5605 5605 5606 5607 5605 5605 5604 5605 5607 5606 5605 5604 5604 5602 5596 5595 5596 5596 5595 5593 5591 5587 5585 5582 5581 5578
5645 5647 5647 5644 5642 5640 5639 5638 5636 5633 5629 5624 5621 5618 5617 5616 5614 5609 5606 5604 5601 5600 5600 5600 5601 5603 5602 5604 5604 5603 5600 5597 5594 5594 5594 5593 5591 5588 5586 5584 5582 5580 5578
5643 5642 5640 5637 5637 5633 5635 5636 5634 5633 5627 5623 5620 5617 5615 5614 5611 5610 5609 5603 5597 5598 5599 5601 5599 5599 5601 5602 5605 5601 5597 5596 5594 5593 5592 5590 5588 5586 5584 5583 5581 5578 5576
5638 5635 5636 5633 5633 5634 5631 5631 5630 5628 5625 5621 5618 5615 5613 5611 5609 5608 5607 5607 5601 5596 5600 5599 5600 5601 5602 5603 5604 5599 5597 5597 5594 5592 5589 5587 5585 5584 5582 5580 5579 5576 5573
5635 5632 5632 5632 5631 5631 5629 5626 5625 5625 5621 5618 5615 5612 5611 5609 5607 5606 5606 5605 5603 5600 5600 5608 5600 5601 5602 5601 5601 5597 5598 5596 5593 5589 5586 5585 5583 5581 5579 5577 5576 5574 5571
5632 5630 5628 5626 5628 5625 5623 5622 5619 5620 5616 5612 5610 5608 5608 5605 5604 5604 5603 5603 5599 5598 5597 5605 5599 5598 5597 5598 5597 5594 5594 5592 5591 5587 5587 5585 5582 5580 5578 5575 5573 5571 5568
5622 5620 5619 5619 5616 5616 5616 5616 5613 5611 5609 5607 5605 5603 5604 5601 5602 5602 5600 5599 5597 5596 5594 5594 5595 5593 5595 5595 5596 5594 5592 5589 5588 5586 5585 5581 5579 5576 5574 5571 5569 5566 5564
5609 5607 5606 5607 5605 5605 5605 5605 5603 5601 5599 5598 5597 5597 5599 5599 5600 5599 5599 5597 5596 5595 5594 5593 5593 5590 5591 5589 5588 5587 5587 5584 5580 5576 5576 5575 5572 5570 5568 5565 5563 5561 5558
5592 5592 5593 5592 5592 5589 5589 5590 5590 5590 5589 5589 5588 5590 5592 5593 5595 5597 5597 5598 5593 5591 5592 5591 5590 5589 5588 5586 5584 5584 5579 5575 5571 5566 5561 5561 5559 5558 5555 5553 5553 5550 5547
5570 5572 5574 5570 5570 5567 5561 5566 5573 5577 5579 5580 5581 5582 5587 5591 5591 5591 5591 5592 5593 5589 5589 5590 5587 5586 5585 5582 5584 5585 5580 5568 5560 5555 5551 5546 5545 5542 5539 5539 5538 5535 5534
5547 5548 5546 5546 5548 5542 5546 5553 5558 5563 5568 5566 5567 5571 5577 5579 5582 5583 5582 5580 5587 5591 5590 5589 5588 5586 5589 5586 5583 5580 5573 5562 5556 5548 5542 5532 5530 5530 5528 5527 5524 5523 5519
5528 5535 5524 5525 5524 5525 5532 5540 5546 5550 5547 5548 5551 5556 5563 5566 5566 5572 5573 5572 5573 5579 5588 5588 5588 5589 5588 5588 5586 5578 5572 5570 5561 5544 5536 5519 5516 5514 5512 5511 5508 5506 5500
5507 5500 5503 5505 5507 5511 5520 5527 5529 5531 5530 5530 5533 5537 5543 5548 5551 5559 5555 5553 5553 5555 5564 5572 5581 5577 5579 5586 5586 5583 5574 5546 5535 5532 5530 5513 5504 5498 5497 5496 5491 5488 5487
5481 5485 5483 5488 5493 5496 5501 5507 5515 5515 5516 5516 5516 5518 5522 5531 5537 5542 5538 5538 5535 5538 5542 5546 5551 5553 5559 5561 5566 5564 5551 5545 5523 5517 5519 5512 5498 5487 5482 5478 5473 5473 5471
5462 5465 5467 5469 5473 5479 5483 5490 5496 5495 5496 5499 5498 5498 5503 5509 5520 5520 5523 5522 5522 5520 5523 5525 5532 5535 5540 5538 5542 5539 5543 5547 5525 5513 5508 5504 5491 5486 5467 5461 5460 5457 5455